Vertical_Velocity
5 2 -2 1 -1 1 -0 -0 3 2 2 -2 3 3 3 -3 2 2 0 0 -1 2
2 1 -2 -0 1 1 1 1 -0 2 1 2 4 2 3 -1 -1 -3 2 -0 2 1
1 3 3 7 4 -0 6 3 4 1 2 5 3 4 4 4 1 -2 -0 2 -0 3
2 2 3 0 1 -3 3 3 -0 2 2 0 0 2 3 5 3 0 4 3 -1 0
8 4 3 -6 1 1 -2 1 1 -1 0 -1 -0 1 -1 2 2 -0 -0 1 1 0
2 2 1 -2 -2 -1 -4 -1 -2 -2 -3 -1 1 -0 4 0 2 -3 1 9 2 4
1 2 3 -6 2 -0 -2 -1 -2 2 2 1 4 -2 3 4 4 -1 6 2 5 8
4 -5 1 2 2 -1 -1 0 1 -0 1 -2 -2 1 1 1 7 -2 2 0 -2 3
-1 1 5 -0 2 1 -1 4 -0 1 0 0 -3 -0 2 -3 -6 10 -3 -2 3 -2
-4 8 6 4 3 -1 -5 -2 -2 -2 0 1 -0 -2 -2 3 3 0 1 1 6 3
2 1 1 2 8 -3 3 0 -1 2 -2 -2 -2 -1 -1 -2 -3 -1 2 2 2 1
-2 -2 8 5 3 4 4 7 3 0 -2 0 -3 -1 -2 -0 -0 1 0 0 1 1
0 5 5 3 5 7 2 7 6 5 0 8 -1 2 2 2 2 1 -3 3 -1 -3
-1 -3 0 7 5 5 4 7 7 4 6 4 3 5 2 2 1 1 4 0 2 0
Height
1472 1477 1480 1485 1489 1493 1497 1501 1505 1509 1513 1518 1522 1526 1528 1533 1536 1540 1544 1546 1550 1553
1466 1471 1475 1480 1484 1488 1492 1496 1500 1505 1508 1511 1516 1520 1523 1526 1530 1533 1537 1539 1543 1546
1459 1465 1469 1474 1478 1482 1487 1490 1494 1498 1502 1505 1510 1514 1517 1520 1523 1526 1529 1532 1535 1539
1454 1459 1463 1468 1473 1478 1482 1484 1488 1492 1496 1500 1504 1507 1510 1512 1516 1518 1521 1524 1528 1531
1450 1453 1458 1464 1468 1472 1475 1478 1482 1485 1489 1494 1497 1500 1503 1505 1507 1509 1513 1516 1519 1524
1443 1449 1453 1458 1463 1466 1469 1472 1475 1478 1481 1485 1489 1492 1494 1497 1499 1501 1502 1505 1511 1516
1442 1445 1448 1453 1456 1459 1462 1465 1468 1471 1474 1478 1481 1484 1485 1488 1490 1492 1494 1497 1504 1508
1438 1442 1447 1450 1452 1454 1458 1461 1464 1466 1468 1471 1473 1475 1478 1480 1483 1485 1489 1493 1497 1501
1437 1441 1443 1447 1448 1452 1455 1457 1459 1462 1464 1466 1468 1470 1472 1475 1477 1480 1483 1486 1491 1494
1438 1440 1439 1442 1444 1448 1452 1456 1457 1459 1461 1462 1464 1467 1469 1471 1473 1476 1478 1481 1484 1488
1440 1438 1440 1442 1440 1446 1449 1453 1455 1456 1457 1459 1460 1463 1466 1469 1472 1474 1476 1478 1481 1484
1443 1442 1442 1440 1440 1442 1444 1447 1451 1452 1455 1456 1458 1461 1464 1467 1469 1471 1473 1476 1478 1481
1447 1444 1442 1442 1441 1441 1443 1445 1447 1449 1452 1453 1457 1459 1462 1464 1466 1468 1470 1472 1474 1477
1450 1448 1447 1445 1443 1443 1443 1446 1446 1448 1451 1453 1455 1458 1460 1462 1464 1466 1466 1469 1471 1473